Tulcea, Romania

10:27 AM EET on January 17, 2018 (GMT +0200)
Cataloi

Weather History for LRTC - March, 2013

Change the Weather History Date:

Wednesday, March 20, 2013

  Actual Average Record
Temperature  
Mean Temperature 52 °F -  
Max Temperature 63 °F 55 °F 66 °F (2014)
Min Temperature 40 °F 40 °F 26 °F (2016)
Degree Days  
Heating Degree Days 14    
Growing Degree Days 2 (Base 50)    
Moisture  
Dew Point 34 °F    
Average Humidity 55    
Maximum Humidity 100    
Minimum Humidity 13    
Precipitation  
Precipitation 0.00 in - - ()
Sea Level Pressure  
Sea Level Pressure 29.84 in    
Wind  
Wind Speed 8 mph ()    
Max Wind Speed 16 mph    
Max Gust Speed -    
Visibility 5.8 miles    
Events      
Averages and records for this station are not official NWS values.
T = Trace of Precipitation, MM = Missing Value Source: Averaged Metar Reports

Daily Weather History Graph

Daily Weather History Graph

Search for Another Location

Airport or City:

Trip Planner

Search our weather history database for the weather conditions in past years. The results will help you decide how hot, cold, wet, or windy it might be!

Date:

Astronomy

Mar. 20, 2013 Rise Set
Actual Time 6:08 AM EET 6:17 PM EET
Civil Twilight 5:39 AM EET 6:46 PM EET
Nautical Twilight 5:04 AM EET 7:21 PM EET
Astronomical Twilight 4:29 AM EET 7:56 PM EET
Moon 11:20 AM EET (3/20) 1:48 AM EET (3/20)
Length of Visible Light 13h 07m
Length of Day
12h 09m
First Quarter, 57% of the Moon is Illuminated
Mar 20
First Quarter
Mar 27
Full
Apr 3
Last Quarter
Apr 10
New
Apr 18
First Quarter

Hourly Weather History & Observations

Time (EET) Temp. Windchill Dew Point Humidity Pressure Visibility Wind Dir Wind Speed Gust Speed Precip Events Conditions
12:00 AM 47 °F - 42 °F 75% 29.62 in 6 mi West 11.2 mph - -  
12:00 AM 44.6 °F 38.1 °F 41.0 °F 87% 29.62 in 6.2 mi WSW 13.8 mph - N/A   Unknown
1:00 AM 46 °F - 41 °F 77% 29.66 in 6 mi West 6.7 mph - -  
1:00 AM 44.6 °F 40.7 °F 41.0 °F 87% 29.68 in 4.3 mi North 6.9 mph - N/A   Unknown
2:00 AM 46 °F - 40 °F 71% 29.68 in 6 mi WNW 6.7 mph - -  
2:00 AM 44.6 °F 37.4 °F 39.2 °F 81% 29.68 in 6.2 mi West 16.1 mph - N/A   Unknown
3:00 AM 44 °F - 38 °F 73% 29.70 in 6 mi West 6.7 mph - -  
3:00 AM 41.0 °F 35.2 °F 39.2 °F 93% 29.71 in 3.7 mi West 9.2 mph - N/A   Unknown
4:00 AM 45 °F - 34 °F 55% 29.73 in 6 mi West 6.7 mph - -  
4:00 AM 39.2 °F 33.0 °F 37.4 °F 93% 29.74 in 3.7 mi West 9.2 mph - N/A   Unknown
5:00 AM 44 °F - 33 °F 53% 29.75 in 6 mi West 6.7 mph - -  
5:00 AM 37.4 °F 30.8 °F 37.4 °F 100% 29.77 in 3.7 mi West 9.2 mph - N/A   Unknown
5:30 AM 37.4 °F 29.8 °F 35.6 °F 93% 29.77 in 3.7 mi WSW 11.5 mph - N/A   Unknown
6:00 AM 44 °F - 31 °F 48% 29.78 in 6 mi NW 4.5 mph - -  
6:00 AM 35.6 °F 31.7 °F 33.8 °F 93% 29.80 in 3.1 mi Variable 4.6 mph - N/A   Mist
6:30 AM 37.4 °F 30.8 °F 33.8 °F 87% 29.80 in 5.6 mi SSW 9.2 mph - N/A   Unknown
7:00 AM 41 °F - 32 °F 59% 29.81 in 6 mi Calm Calm - -  
7:00 AM 39.2 °F 35.9 °F 35.6 °F 87% 29.83 in 5.6 mi ENE 4.6 mph - N/A   Unknown
7:30 AM 42.8 °F 38.6 °F 37.4 °F 81% 29.83 in 6.2 mi West 6.9 mph - N/A   Unknown
8:00 AM 46 °F - 34 °F 51% 29.84 in 6 mi WSW 4.5 mph - -  
8:00 AM 44.6 °F 40.7 °F 39.2 °F 81% 29.83 in - WSW 6.9 mph - N/A   Clear
8:30 AM 48.2 °F - 39.2 °F 71% 29.86 in - SW 9.2 mph - N/A   Clear
9:00 AM 51 °F - 33 °F 38% 29.86 in 6 mi West 4.5 mph - -   Scattered Clouds
9:00 AM 48.2 °F - 37.4 °F 66% 29.86 in - WSW 11.5 mph - N/A   Clear
9:30 AM 50.0 °F - 35.6 °F 58% 29.86 in - SW 9.2 mph - N/A   Clear
10:00 AM 53 °F - 35 °F 38% 29.88 in 6 mi WSW 6.7 mph - -   Clear
10:00 AM 50.0 °F - 37.4 °F 62% 29.89 in - SW 6.9 mph - N/A   Clear
10:30 AM 53.6 °F - 33.8 °F 47% 29.89 in - WSW 11.5 mph - N/A   Clear
11:00 AM 56 °F - 33 °F 30% 29.89 in 6 mi WSW 6.7 mph - -   Clear
11:00 AM 55.4 °F - 32.0 °F 41% 29.89 in - WSW 11.5 mph - N/A   Clear
11:30 AM 57.2 °F - 32.0 °F 38% 29.89 in - WSW 13.8 mph - N/A   Clear
12:00 PM 58 °F - 29 °F 22% 29.89 in 6 mi WNW 4.5 mph - -   Clear
12:00 PM 57.2 °F - 30.2 °F 36% 29.89 in - WSW 11.5 mph - N/A   Clear
12:30 PM 57.2 °F - 28.4 °F 33% 29.89 in - SW 13.8 mph - N/A   Clear
1:00 PM 60 °F - 25 °F 15% 29.89 in 6 mi WNW 6.7 mph - -   Clear
1:00 PM 59.0 °F - 28.4 °F 31% 29.89 in 6.2 mi SW 13.8 mph - N/A   Partly Cloudy
1:30 PM 60.8 °F - 28.4 °F 29% 29.89 in 6.2 mi WSW 11.5 mph - N/A   Partly Cloudy
2:00 PM 61 °F - 26 °F 15% 29.89 in 6 mi NW 6.7 mph - -   Clear
2:00 PM 60.8 °F - 30.2 °F 31% 29.89 in 6.2 mi WSW 9.2 mph - N/A   Partly Cloudy
2:30 PM 60.8 °F - 28.4 °F 29% 29.86 in 6.2 mi West 9.2 mph - N/A   Partly Cloudy
3:00 PM 62 °F - 24 °F 13% 29.88 in 6 mi NW 6.7 mph - -   Clear
3:00 PM 62.6 °F - 26.6 °F 26% 29.86 in 6.2 mi WSW 11.5 mph - N/A   Partly Cloudy
3:30 PM 62.6 °F - 23.0 °F 22% 29.86 in 6.2 mi West 11.5 mph - N/A   Partly Cloudy
4:00 PM 63 °F - 25 °F 13% 29.88 in 6 mi WSW 4.5 mph - -   Clear
4:00 PM 62.6 °F - 21.2 °F 20% 29.86 in 6.2 mi WSW 11.5 mph - N/A   Partly Cloudy
4:30 PM 62.6 °F - 23.0 °F 22% 29.86 in 6.2 mi WSW 6.9 mph - N/A   Partly Cloudy
5:00 PM 56 °F - 36 °F 34% 29.88 in 6 mi SSE 15.7 mph - -   Clear
5:00 PM 57.2 °F - 35.6 °F 44% 29.86 in 6.2 mi SE 13.8 mph - N/A   Partly Cloudy
5:30 PM 55.4 °F - 39.2 °F 54% 29.89 in - SE 13.8 mph - N/A   Clear
6:00 PM 54 °F - 36 °F 39% 29.89 in 6 mi South 11.2 mph - -   Clear
6:00 PM 53.6 °F - 39.2 °F 58% 29.89 in - SE 11.5 mph - N/A   Clear
6:30 PM 51.8 °F - 37.4 °F 58% 29.89 in - SSE 11.5 mph - N/A   Clear
7:00 PM 51 °F - 37 °F 47% 29.91 in 6 mi South 13.4 mph - -   Clear
7:00 PM 50.0 °F - 37.4 °F 62% 29.92 in - SSE 11.5 mph - N/A   Clear
7:30 PM 48.2 °F - 37.4 °F 66% 29.92 in - SSE 11.5 mph - N/A   Clear
8:00 PM 49 °F - 36 °F 51% 29.92 in 6 mi South 13.4 mph - -   Clear
8:00 PM 46.4 °F 41.9 °F 37.4 °F 71% 29.92 in 6.2 mi SE 9.2 mph - N/A   Unknown
8:30 PM 48.2 °F - 37.4 °F 66% 29.92 in 6.2 mi Variable 2.3 mph - N/A   Unknown
9:00 PM 48 °F - 37 °F 54% 29.93 in 6 mi South 11.2 mph - -  
9:00 PM 46.4 °F 44.3 °F 37.4 °F 71% 29.92 in 6.2 mi SE 4.6 mph - N/A   Unknown
10:00 PM 48 °F - 37 °F 54% 29.92 in 6 mi South 11.2 mph - -  
10:00 PM 44.6 °F 42.2 °F 35.6 °F 71% 29.92 in 6.2 mi SSE 4.6 mph - N/A   Partly Cloudy
11:00 PM 47 °F - 37 °F 59% 29.93 in 6 mi SSW 8.9 mph - -  
11:00 PM 42.8 °F - 35.6 °F 76% 29.92 in 6.2 mi Variable 2.3 mph - N/A   Unknown